London-Corbin, KY

5:34 PM EDT on April 25, 2017 (GMT -0400)
London-Corbin / McKee

Weather History for KLOZ - May, 2014

Change the Weather History Date:

Tuesday, May 13, 2014

  Actual Average Record
Temperature  
Mean Temperature 74 °F 64 °F  
Max Temperature 85 °F 76 °F 89 °F (1956)
Min Temperature 63 °F 52 °F 34 °F (2013)
Degree Days  
Heating Degree Days 0 3  
Month to date heating degree days 29 55  
Since 1 July heating degree days 4366 4156  
Cooling Degree Days 9 2  
Month to date cooling degree days 57 21  
Year to date cooling degree days 82 47  
Growing Degree Days 24 (Base 50)    
Moisture  
Dew Point 63 °F    
Average Humidity 69    
Maximum Humidity 87    
Minimum Humidity 51    
Precipitation  
Precipitation T in 0.18 in 1.68 in (1983)
Month to date precipitation 0.75  
Year to date precipitation 17.51  
Sea Level Pressure  
Sea Level Pressure 30.09 in    
Wind  
Wind Speed 4 mph (WSW)    
Max Wind Speed 26 mph    
Max Gust Speed 37 mph    
Visibility 9 miles    
Events Rain , Thunderstorm    
T = Trace of Precipitation, MM = Missing Value Source: NWS Daily Summary

Daily Weather History Graph

Daily Weather History Graph

Search for Another Location

Airport or City:

Trip Planner

Search our weather history database for the weather conditions in past years. The results will help you decide how hot, cold, wet, or windy it might be!

Date:

Astronomy

May. 13, 2014 Rise Set
Actual Time 6:29 AM EDT 8:36 PM EDT
Civil Twilight 6:00 AM EDT 9:05 PM EDT
Nautical Twilight 5:25 AM EDT 9:40 PM EDT
Astronomical Twilight 4:47 AM EDT 10:18 PM EDT
Moon 7:38 PM EDT (5/13) 5:43 AM EDT (5/13)
Length of Visible Light 15h 04m
Length of Day
14h 06m
Waxing Gibbous, 98% of the Moon is Illuminated
May 13
Waxing Gibbous
May 14
Full
May 21
Last Quarter
May 28
New
Jun 5
First Quarter

Hourly Weather History & Observations

Time (EDT) Temp. Heat Index Dew Point Humidity Pressure Visibility Wind Dir Wind Speed Gust Speed Precip Events Conditions
12:53 AM 70.0 °F - 64.9 °F 84% 30.06 in 10.0 mi Calm Calm - N/A   Clear
2:53 AM 66.9 °F - 63.0 °F 87% 30.08 in 10.0 mi Calm Calm - N/A   Clear
3:53 AM 66.0 °F - 62.1 °F 87% 30.08 in 8.0 mi Calm Calm - N/A   Clear
4:53 AM 64.0 °F - 61.0 °F 90% 30.08 in 3.0 mi Calm Calm - N/A   Clear
5:53 AM 64.0 °F - 61.0 °F 90% 30.08 in 7.0 mi Calm Calm - N/A   Clear
6:53 AM 64.0 °F - 61.0 °F 90% 30.08 in 3.0 mi Calm Calm - N/A   Clear
7:53 AM 68.0 °F - 63.0 °F 84% 30.09 in 10.0 mi Calm Calm - N/A   Clear
9:53 AM 78.1 °F - 64.9 °F 64% 30.11 in 10.0 mi SSW 6.9 mph - N/A   Clear
10:53 AM 81.0 °F 82.7 °F 64.9 °F 58% 30.11 in 10.0 mi SSW 11.5 mph - N/A   Clear
12:53 PM 84.0 °F 85.4 °F 64.0 °F 51% 30.11 in 10.0 mi SW 11.5 mph - N/A   Partly Cloudy
1:23 PM 84.0 °F 84.5 °F 62.1 °F 47% 30.14 in 10.0 mi SSW 10.4 mph - N/A Thunderstorm Scattered Clouds
1:38 PM 84.9 °F 85.9 °F 63.0 °F 48% 30.13 in 10.0 mi WSW 8.1 mph - N/A   Scattered Clouds
1:53 PM 84.0 °F 85.4 °F 64.0 °F 51% 30.09 in 10.0 mi West 9.2 mph - N/A   Mostly Cloudy
2:11 PM 82.9 °F 84.4 °F 64.0 °F 53% 30.12 in 10.0 mi WSW 10.4 mph - N/A Thunderstorm Mostly Cloudy
2:20 PM 75.9 °F - 62.1 °F 62% 30.13 in 2.5 mi West 24.2 mph 36.8 mph 0.00 in Rain , Thunderstorm Light Thunderstorms and Rain
2:27 PM 70.0 °F - 61.0 °F 73% 30.11 in 1.0 mi NW 8.1 mph 32.2 mph 0.00 in Rain , Thunderstorm Heavy Thunderstorms and Rain
2:32 PM 73.0 °F - 63.0 °F 71% 30.11 in 3.0 mi WNW 6.9 mph - 0.00 in Rain Light Rain
2:42 PM 75.9 °F - 63.0 °F 64% 30.12 in 10.0 mi North 3.5 mph - 0.00 in Thunderstorm Partly Cloudy
2:53 PM 79.0 °F - 64.0 °F 60% 30.09 in 10.0 mi NNE 3.5 mph - 0.00 in Thunderstorm Partly Cloudy
3:04 PM 78.1 °F - 64.0 °F 62% 30.12 in 10.0 mi NNE 4.6 mph - N/A   Partly Cloudy
3:17 PM 80.1 °F 82.1 °F 66.0 °F 62% 30.12 in 10.0 mi East 4.6 mph - N/A Thunderstorm Scattered Clouds
3:32 PM 82.0 °F 84.1 °F 66.0 °F 58% 30.10 in 10.0 mi Calm Calm - N/A   Partly Cloudy
3:53 PM 84.0 °F 85.8 °F 64.9 °F 53% 30.06 in 10.0 mi West 9.2 mph - N/A   Clear
4:19 PM 82.9 °F 84.0 °F 63.0 °F 51% 30.10 in 10.0 mi West 9.2 mph - N/A Thunderstorm Partly Cloudy
4:40 PM 82.0 °F 83.4 °F 64.0 °F 54% 30.09 in 10.0 mi West 16.1 mph 25.3 mph N/A Thunderstorm Thunderstorm
4:53 PM 80.1 °F 81.5 °F 63.0 °F 56% 30.06 in 10.0 mi West 13.8 mph 20.7 mph N/A Thunderstorm Scattered Clouds
5:03 PM 80.1 °F 80.7 °F 59.0 °F 48% 30.11 in 10.0 mi West 12.7 mph - N/A Thunderstorm Thunderstorm
5:18 PM 78.1 °F - 57.9 °F 50% 30.11 in 10.0 mi WNW 4.6 mph - N/A Thunderstorm Mostly Cloudy
5:50 PM 73.4 °F - 66.2 °F 78% 30.10 in 10.0 mi East 5.8 mph - N/A   Partly Cloudy
5:53 PM 73.9 °F - 66.0 °F 76% 30.07 in 10.0 mi East 5.8 mph - N/A   Clear
6:53 PM 75.9 °F - 68.0 °F 76% 30.05 in 10.0 mi SE 3.5 mph - N/A   Clear
7:53 PM 71.1 °F - 64.0 °F 78% 30.07 in 10.0 mi SSE 6.9 mph - N/A   Clear
8:53 PM 70.0 °F - 63.0 °F 78% 30.06 in 10.0 mi Calm Calm - N/A   Clear
9:53 PM 66.9 °F - 63.0 °F 87% 30.08 in 10.0 mi SE 3.5 mph - N/A   Clear
10:53 PM 66.9 °F - 63.0 °F 87% 30.09 in 10.0 mi SE 3.5 mph - N/A   Clear
11:53 PM 66.9 °F - 63.0 °F 87% 30.09 in 10.0 mi Calm Calm - N/A   Scattered Clouds